Location: Newark
(49.3667°N, 21.6167°E)
Time: 01:59:05
(UTC+00:00)

Envisat - Pass Details

Date: 09 December 2019
Orbit: 764 x 766 km, 98.1° (Epoch: 23 January)

Event Time Altitude Azimuth Distance (km) Brightness Sun altitude
Rises 16:33:30 0° 171° (S) 3,221 6.3 -18.3°
Reaches altitude 10° 16:35:49 10° 174° (S) 2,299 5.6 -18.7°
Maximum altitude 16:40:52 69° 258° (WSW) 824 3.3 -19.5°
Drops below altitude 10° 16:45:58 10° 342° (NNW) 2,316 5.6 -20.3°
Sets 16:48:18 0° 345° (NNW) 3,247 6.3 -20.7°
